Regional Weather Roundup
Issued by NWS

Home | Current Version | Previous Version | Graphics & Text | Print | Product List | Glossary On
Versions: 1 2 3 4 5 6 7 8 9 10 11 12 13 14 15 16 17 18 19 20 21 22 23 24 25 26 27 28 29 30 31 32 33 34 35 36 37 38 39 40 41 42 43 44 45 46 47 48 49 50
000
ASUS43 KMKX 290400
RWRWI

WISCONSIN REGIONAL WEATHER ROUNDUP
NATIONAL WEATHER SERVICE MILWAUKEE/SULLIVAN WI
1000 PM CST SUN DEC 28 2014

NOTE: "FAIR" INDICATES FEW OR NO CLOUDS BELOW 12,000 FEET WITH NO
SIGNIFICANT WEATHER AND/OR OBSTRUCTIONS TO VISIBILITY.

WIZ001-002-006>008-014>016-023>028-290500-
NORTHWEST WISCONSIN

CITY           SKY/WX    TMP DP  RH WIND       PRES   REMARKS
SUPERIOR ARPT  CLEAR      6  -1  70 N7        30.37R WCI  -5
ASHLAND        CLEAR      1  -4  79 W6        30.33R WCI -10
HAYWARD        CLEAR     -8 -12  83 N3        30.29S
SIREN          CLEAR     -1  -6  78 CALM      30.33R
CUMBERLAND     FAIR       5  -6  61 N7        30.27S WCI  -7
RICE LAKE      FAIR       4  -3  72 N3        30.31R
CHETEK         FAIR       2  -1  85 CALM      30.29R
LADYSMITH      CLEAR      2  -2  81 N3        30.28S
EAU CLAIRE     PTCLDY    -1  -6  79 N5        30.30R WCI -11
MENOMONIE      PTCLDY     6   2  86 CALM      30.30R
NEW RICHMOND   PTCLDY     1  -4  77 CALM      30.31R
OSCEOLA        PTCLDY    -1  -4  86 CALM      30.35R
$$

WIZ003>005-009-010-017-018-290500-
NORTH CENTRAL WISCONSIN

CITY           SKY/WX    TMP DP  RH WIND       PRES   REMARKS
MANITOWISH WTR PTCLDY   -13 -17  81 CALM      30.22R
ARBOR VITAE    FAIR      -6 -11  80 N6        30.21F WCI -19
WOODRUFF       FAIR      -6 -11  80 N6        30.21F WCI -19
RHINELANDER    PTCLDY    -4  -6  91 NW3       30.21R
EAGLE RIVER    PTCLDY    -4  -9  81 NW6       30.20F WCI -17
LAND O LAKES   FLURRIES  -4  -8  82 CALM      30.20S
PHILLIPS       CLEAR    -10 -14  83 CALM      30.23S
TOMAHAWK       PTCLDY     1  -2  88 CALM      30.23S
MEDFORD        PTCLDY   N/A N/A N/A NW3       30.24R
MERRILL        PTCLDY     0  -2  91 CALM      30.24R
$$

WIZ029-030-035-036-043>047-290500-
CENTRAL WISCONSIN

CITY           SKY/WX    TMP DP  RH WIND       PRES   REMARKS
WAUSAU         CLEAR      6   2  83 CALM      30.24R
MOSINEE        CLEAR      9   7  92 N3        30.26R
MARSHFIELD     PTCLDY    10   6  84 N6        30.24S WCI   0
STEVENS POINT  CLEAR     12   9  89 N3        30.26R
WAUPACA        CLEAR     19  14  81 NW5       30.26R WCI  13
WAUTOMA        NOT AVBL
WISC RAPIDS    CLEAR     15   9  76 N7        30.27S WCI   5
CAMP DOUGLAS   NOT AVBL
$$

WIZ011>013-019>022-031-037>040-048>050-290500-
NORTHEAST WISCONSIN

CITY           SKY/WX    TMP DP  RH WIND       PRES   REMARKS
ANTIGO         PTCLDY    -1  -4  90 N3        30.21R
SHAWANO        FAIR      18  10  71 W7        30.27R WCI   9
OCONTO         CLEAR     16   8  68 N5        30.28R WCI   9
STURGEON BAY   CLEAR     18   9  68 N13       30.27R WCI   4
GREEN BAY      PTCLDY    20  11  68 N10       30.27R WCI   9
MANITOWOC      NOT AVBL
APPLETON       PTCLDY    19  12  73 NW7       30.26R WCI  10
CLINTONVILLE   CLEAR     19  12  73 N6        30.27R WCI  11
OSHKOSH        MOCLDY    22  15  75 N8        30.25R WCI  12
$$

WIZ032>034-041-042-053>061-290500-
SOUTHWEST WISCONSIN

CITY           SKY/WX    TMP DP  RH WIND       PRES   REMARKS
LA CROSSE      PTCLDY    19  13  77 CALM      30.31R
SPARTA         PTCLDY    16  14  92 CALM      30.29R
VIROQUA        PTCLDY    19  17  88 NE6       30.24R WCI  11
BOSCOBEL       CLOUDY    20  17  88 CALM      30.27R
PRAIRIE DU CHI CLOUDY    25  19  76 N3        30.26S
PLATTEVILLE    PTCLDY    24  21  87 CALM      30.23S
$$

WIZ056-057-062-063-064-067-068-290500-
SOUTH CENTRAL WISCONSIN

CITY           SKY/WX    TMP DP  RH WIND       PRES   REMARKS
REEDSBURG      CLOUDY    22  16  76 N6        30.26R WCI  15
BARABOO/DELLS  CLOUDY    23  16  74 NW8       30.26R WCI  14
LONE ROCK      NOT AVBL
MINERAL POINT  CLOUDY    27  21  80 N7        30.21S WCI  19
MADISON        CLOUDY    28  20  71 N10       30.23S WCI  19
MIDDLETON      CLOUDY    31  21  68 N6        30.23S WCI  25
WATERTOWN      CLOUDY    26  24  92 CALM      30.22F
MONROE         MOCLDY    27  19  74 N6        30.21S WCI  20
JANESVILLE     MOCLDY    27  19  74 CALM      30.22S
$$

WIZ051-052-058>065-066-070>072-290500-
SOUTHEAST WISCONSIN

CITY           SKY/WX    TMP DP  RH WIND       PRES   REMARKS
MILWAUKEE      PTCLDY    26  17  68 CALM      30.23S
WAUKESHA       CLOUDY    23  19  86 CALM      30.23S
MILWAUKEE/TIMM CLOUDY    25  19  80 CALM      30.24R
RACINE         CLEAR     25  18  74 NW6       30.25R WCI  18
BURLINGTON     MOCLDY    19  17  93 CALM      30.23R
KENOSHA        PTCLDY    26  19  74 N3        30.23S
FOND DU LAC    CLOUDY    25  16  68 N8        30.25R WCI  16
SHEBOYGAN      CLOUDY    25  18  74 N6        30.24R WCI  18
WEST BEND      CLOUDY    27  21  80 N6        30.23R WCI  20
JUNEAU         CLOUDY    26  21  81 N8        30.24R WCI  17
$$

LSZ147-162-290500-
LAKE SUPERIOR

STATION/POSITION TIME  TEMP    WIND        PRES    WAVE
                       AIR SEA DIR/SP/G            HT/PER
                 (UTC) (F)     (DEG/KT/KT) (MB)    (FT/S)
DEVILS ISLAND    0300   12     300/ 12/ 15 1028.1R
PORT WING        0300   13     300/ 11/ 15 1027.1S
SAXON HARBOR     0340    8     200/  6/  8 1026.4R
$$

LMZ867-665-643>646-290500-
LAKE MICHIGAN

STATION/POSITION TIME  TEMP    WIND        PRES    WAVE
                       AIR SEA DIR/SP/G            HT/PER
                 (UTC) (F)     (DEG/KT/KT) (MB)    (FT/S)
CHAMBERS ISLAND  0300   18     310/ 14/ 21 1024.4S
NORTHPORT PIER   0308   20     330/ 20     1024.0S
SISTER BAY       0213          340/ 22/ 26   N/A
ALGOMA LAKESHORE 0245          340/ 12/ 16   N/A
KEWAUNEE LAKESHO 0300   22     340/  7/ 10 1023.1R
SHEBOYGAN LAKESH 0300   27 36  340/ 11/ 13 1025.0R
PORT WASHINGTON  0300   28     270/  2/  3 1024.4R
MILWAUKEE LAKESH 0300   29     340/  6/  7   N/A
KENOSHA   LAKESH 0300   29     340/  6/  7 1023.4R
$$

TC  - TEMPERATURE IN CELSIUS
VSB - VISIBILITY IN STATUTE MILES
WCI - WIND CHILL INDEX
HX  - HEAT INDEX




USA.gov is the U.S. government's official web portal to all federal, state and local government web resources and services.